Regional Weather Roundup
Issued by NWS

Home | Current Version | Previous Version | Graphics & Text | Print | Product List | Glossary On
Versions: 1 2 3 4 5 6 7 8 9 10 11 12 13 14 15 16 17 18 19 20 21 22 23 24 25 26 27 28 29 30 31 32 33 34 35 36 37 38 39 40 41 42 43 44 45 46 47 48 49 50
000
ASUS45 KPSR 200200
RWRAZ

PRELIMINARY ARIZONA REGIONAL HOURLY WEATHER ROUNDUP
NATIONAL WEATHER SERVICE PHOENIX AZ
700 PM MST SUN OCT 19 2014

NOTE: FAIR INDICATES FEW OR NO CLOUDS BELOW 12,000 FEET WITH NO
SIGNIFICANT WEATHER AND/OR OBSTRUCTIONS TO VISIBILITY.

AZZ001>003-036-200300-
NORTHWEST ARIZONA

CITY           SKY/WX    TMP DP  RH WIND       PRES   REMARKS
KINGMAN        MOCLDY    66  45  46 S9        29.94R
$$

AZZ004>008-015-016-018-200300-
NORTH CENTRAL ARIZONA

CITY           SKY/WX    TMP DP  RH WIND       PRES   REMARKS
GRAND CANYON   CLEAR     45  32  60 CALM      30.15R
PRESCOTT       LGT RAIN  65  42  43 S5        30.05R
FLAGSTAFF      PTCLDY    49  39  68 CALM      30.16R
PAYSON         MOCLDY    59  41  51 E5        30.09R
$$

AZZ009>014-017-200300-
NORTHEAST ARIZONA

CITY           SKY/WX    TMP DP  RH WIND       PRES   REMARKS
WINSLOW        NOT AVBL
SAINT JOHNS    CLEAR     52  47  83 S7        30.11R
$$

AZZ023-200300-
GREATER PHOENIX AREA

CITY           SKY/WX    TMP DP  RH WIND       PRES   REMARKS
PHOENIX        TSTM      80  51  36 E17G31    29.84R
GLENDALE       MOCLDY    84  48  28 NE20G25   29.83R
LUKE AFB       MOCLDY    84  50  30 NE18G28   29.80R
DEER VALLEY    CLOUDY    74  59  59 S12       29.84R
SCOTTSDALE     MOCLDY    83  44  25 E6        29.87R
MESA-FALCON    MOCLDY    81  45  28 E12       29.83R
MESA-GATEWAY   MOCLDY    73  52  46 SE22      29.87R
$$

AZZ027-028-200300-
SOUTHWEST MARICOPA COUNTY AND PINAL COUNTY

CITY           SKY/WX    TMP DP  RH WIND       PRES   REMARKS
CASA GRANDE    CLOUDY    73  50  43 E21G29    29.87R
$$

AZZ503-504-507>509-200300-
SOUTHEAST ARIZONA

CITY           SKY/WX    TMP DP  RH WIND       PRES   REMARKS
TUCSON         CLOUDY    70  51  51 SW10      29.94R
RYAN FIELD       N/A     72  54  53 S15       29.91F
NOGALES        MOCLDY    63  49  60 W5        29.97R
SIERRA VISTA   PTCLDY    61  44  53 W17G24    30.00R
SAFFORD        CLOUDY    61  55  81 NW10      29.99R
$$

AZZ020-021-025-026-031-200300-
SOUTHWEST ARIZONA

CITY           SKY/WX    TMP DP  RH WIND       PRES   REMARKS
YUMA           NOT AVBL
$$

CAZ031-033-041-043-047-048-061-200300-
SOUTHERN CALIFORNIA

CITY           SKY/WX    TMP DP  RH WIND       PRES   REMARKS
DOWNTOWN L.A.  CLEAR     70  60  70 VRB3      29.84R
L.A. AIRPORT   PTCLDY    68  62  81 W13       29.85R
SAN DIEGO      PTCLDY    70  61  73 W6        29.87R
BURBANK        CLEAR     69  59  70 S6        29.85R
ONTARIO        CLEAR     72  59  63 W8        29.86R
RIVERSIDE      CLEAR     73  59  61 W7        29.86R
PALM SPRINGS   CLEAR     88  48  25 NW10      29.76R
EL CENTRO NAS  CLEAR     84  47  27 E5        29.72R
IMPERIAL       CLEAR     88  47  24 E3        29.72R
BLYTHE         CLEAR     87  49  26 S5        29.74R
$$

NVZ020-UTZ003-200300-
SOUTHERN NEVADA-UTAH

CITY           SKY/WX    TMP DP  RH WIND       PRES   REMARKS
LAS VEGAS      NOT AVBL
SALT LAKE CITY CLEAR     59  45  59 W5        30.03R
$$

NMZ009-TXZ055-200300-
NEW MEXICO-WEST TEXAS

CITY           SKY/WX    TMP DP  RH WIND       PRES   REMARKS
ALBUQUERQUE    PTCLDY    59  41  51 E3        30.14S
EL PASO        TSTM      58  55  90 W32G53    29.99R VSB 1
$$


........................KEY........................
SKY/WX - SKY CONDITION/WEATHER
TMP    - TEMPERATURE IN FAHRENHEIT
DP     - DEW POINT IN FAHRENHEIT
RH     - RELATIVE HUMIDITY IN PERCENT
WIND   - DIRECTION AND SPEED IN MILES PER HOUR (MPH)
VRB    - VARIABLE WIND DIRECTION
PRES   - MEAN SEA LEVEL PRESSURE IN INCHES OF MERCURY
         F - FALLING PRESSURE   R - RISING PRESSURE
         S - STEADY PRESSURE
VSB    - VISIBILITY IN MILES
HX     - HEAT INDEX IN FAHRENHEIT
WCI    - WIND CHILL INDEX IN FAHRENHEIT
TC     - TEMPERATURE IN CELSIUS WHICH IS ALSO KNOWN AS
         TEMPERATURE IN CENTIGRADE
AFB    - AIR FORCE BASE
         LUKE AFB IS LUKE AIR FORCE BASE
         DAVIS-MONTHAN IS DAVIS-MONTHAN AIR FORCE BASE
NAS    - NAVAL AIR STATION
         EL CENTRO NAS IS EL CENTRO NAVAL AIR STATION
N/A    - NOT AVAILABLE


USA.gov is the U.S. government's official web portal to all federal, state and local government web resources and services.